TimeICT,TemperatureF,Dew PointF,Humidity,Sea Level PressureIn,VisibilityMPH,Wind Direction,Wind SpeedMPH,Gust SpeedMPH,PrecipitationIn,Events,Conditions,WindDirDegrees,DateUTC
12:00 AM,80.6,75.2,84,29.83,5.6,East,8.1,-,N/A,,Mostly Cloudy,100,2012-11-29 17:00:00
12:30 AM,80.6,75.2,84,29.80,5.0,ESE,5.8,-,N/A,,Mostly Cloudy,110,2012-11-29 17:30:00
1:00 AM,81,78,86,29.78,6,Calm,Calm,,,,Scattered Clouds,,2012-11-29 18:00:00
1:00 AM,80.6,75.2,84,29.80,5.6,East,6.9,-,N/A,,Mostly Cloudy,100,2012-11-29 18:00:00
1:30 AM,80.6,75.2,84,29.80,5.6,ESE,5.8,-,N/A,,Mostly Cloudy,110,2012-11-29 18:30:00
2:00 AM,80.6,75.2,84,29.77,5.6,East,5.8,-,N/A,,Mostly Cloudy,100,2012-11-29 19:00:00
2:30 AM,80.6,73.4,79,29.77,5.6,East,6.9,-,N/A,,Mostly Cloudy,90,2012-11-29 19:30:00
3:00 AM,80.6,73.4,79,29.77,5.6,Variable,2.3,-,N/A,,Mostly Cloudy,0,2012-11-29 20:00:00
3:30 AM,78.8,75.2,89,29.77,5.6,ESE,3.5,-,N/A,,Mostly Cloudy,120,2012-11-29 20:30:00
4:00 AM,78.8,75.2,89,29.74,5.6,ESE,3.5,-,N/A,,Mostly Cloudy,120,2012-11-29 21:00:00
4:30 AM,77.0,73.4,89,29.74,5.6,Variable,2.3,-,N/A,,Mostly Cloudy,0,2012-11-29 21:30:00
5:00 AM,77.0,75.2,94,29.77,5.6,Variable,2.3,-,N/A,,Mostly Cloudy,0,2012-11-29 22:00:00
5:30 AM,78.8,75.2,89,29.77,5.6,Variable,2.3,-,N/A,,Mostly Cloudy,0,2012-11-29 22:30:00
6:00 AM,78.8,75.2,89,29.77,5.6,ESE,4.6,-,N/A,,Mostly Cloudy,110,2012-11-29 23:00:00
6:30 AM,78.8,75.2,89,29.77,5.6,Variable,1.2,-,N/A,,Mostly Cloudy,0,2012-11-29 23:30:00
7:00 AM,78,76,94,29.75,6,Calm,Calm,,,,Scattered Clouds,,2012-11-30 00:00:00
7:00 AM,78.8,75.2,89,29.80,5.6,Variable,2.3,-,N/A,,Mostly Cloudy,0,2012-11-30 00:00:00
7:30 AM,80.6,75.2,84,29.80,5.6,Calm,Calm,-,N/A,,Mostly Cloudy,0,2012-11-30 00:30:00
8:00 AM,82.4,75.2,79,29.80,5.6,East,9.2,-,N/A,,Mostly Cloudy,90,2012-11-30 01:00:00
8:30 AM,84.2,75.2,74,29.83,5.6,ESE,8.1,-,N/A,,Mostly Cloudy,120,2012-11-30 01:30:00
9:00 AM,84.2,75.2,74,29.83,6.2,East,11.5,-,N/A,,Mostly Cloudy,90,2012-11-30 02:00:00
9:30 AM,84.2,75.2,74,29.83,6.2,East,10.4,-,N/A,,Mostly Cloudy,80,2012-11-30 02:30:00
10:00 AM,86.0,75.2,70,29.83,5.6,ESE,10.4,-,N/A,,Mostly Cloudy,110,2012-11-30 03:00:00
10:30 AM,86.0,75.2,70,29.83,5.6,East,13.8,-,N/A,,Mostly Cloudy,80,2012-11-30 03:30:00
11:00 AM,84.2,73.4,70,29.83,6.2,East,9.2,-,N/A,,Mostly Cloudy,100,2012-11-30 04:00:00
11:30 AM,87.8,75.2,66,29.80,5.6,East,11.5,-,N/A,,Mostly Cloudy,80,2012-11-30 04:30:00
12:00 PM,86.0,75.2,70,29.80,6.2,East,8.1,-,N/A,,Mostly Cloudy,100,2012-11-30 05:00:00
12:30 PM,86.0,75.2,70,29.77,6.2,East,9.2,-,N/A,,Mostly Cloudy,100,2012-11-30 05:30:00
1:00 PM,88,76,60,29.75,6,East,9.2,,,,Scattered Clouds,80,2012-11-30 06:00:00
1:00 PM,87.8,75.2,66,29.77,6.2,SE,6.9,-,N/A,,Mostly Cloudy,140,2012-11-30 06:00:00
1:30 PM,87.8,75.2,66,29.77,6.2,Variable,5.8,-,N/A,,Mostly Cloudy,0,2012-11-30 06:30:00
2:00 PM,87.8,73.4,62,29.74,6.2,ESE,6.9,-,N/A,,Mostly Cloudy,120,2012-11-30 07:00:00
2:30 PM,87.8,73.4,62,29.74,6.2,East,8.1,-,N/A,,Mostly Cloudy,100,2012-11-30 07:30:00
3:00 PM,87.8,73.4,62,29.71,6.2,Variable,3.5,-,N/A,,Mostly Cloudy,0,2012-11-30 08:00:00
3:30 PM,87.8,73.4,62,29.71,6.2,ESE,3.5,-,N/A,,Mostly Cloudy,120,2012-11-30 08:30:00
4:00 PM,86.0,73.4,66,29.71,5.0,Variable,4.6,-,N/A,,Mostly Cloudy,0,2012-11-30 09:00:00
4:30 PM,86.0,73.4,66,29.71,5.0,SE,5.8,-,N/A,,Mostly Cloudy,130,2012-11-30 09:30:00
5:00 PM,86.0,75.2,70,29.71,5.0,Variable,3.5,-,N/A,,Mostly Cloudy,0,2012-11-30 10:00:00
6:00 PM,84.2,75.2,74,29.77,5.0,ENE,9.2,-,N/A,Rain,Light Rain,60,2012-11-30 11:00:00
7:00 PM,83,77,77,29.73,5,East,4.6,,,Rain,Light Rain,90,2012-11-30 12:00:00
7:00 PM,80.6,77.0,89,29.80,4.3,East,3.5,-,N/A,Rain,Light Rain,100,2012-11-30 12:00:00
7:30 PM,80.6,77.0,89,29.80,5.0,ESE,2.3,-,N/A,,Mostly Cloudy,110,2012-11-30 12:30:00
8:00 PM,80.6,77.0,89,29.80,5.0,Variable,5.8,-,N/A,,Mostly Cloudy,0,2012-11-30 13:00:00
8:30 PM,80.6,75.2,84,29.83,5.0,Variable,2.3,-,N/A,,Mostly Cloudy,0,2012-11-30 13:30:00
9:00 PM,78.8,77.0,94,29.83,5.0,Variable,2.3,-,N/A,,Mostly Cloudy,0,2012-11-30 14:00:00
9:30 PM,80.6,77.0,89,29.83,5.0,NE,3.5,-,N/A,,Mostly Cloudy,50,2012-11-30 14:30:00
10:00 PM,78.8,77.0,94,29.86,5.6,NE,3.5,-,N/A,,Mostly Cloudy,40,2012-11-30 15:00:00
10:30 PM,80.6,75.2,84,29.86,5.6,ENE,5.8,-,N/A,,Mostly Cloudy,70,2012-11-30 15:30:00
11:00 PM,78.8,75.2,89,29.83,5.6,Variable,2.3,-,N/A,,Mostly Cloudy,0,2012-11-30 16:00:00
11:30 PM,78.8,75.2,89,29.83,5.6,East,4.6,-,N/A,,Mostly Cloudy,80,2012-11-30 16:30:00